Weather History for Wahoo, NE

Change the Weather History Date:

Thursday, September 6, 2012

  Actual Average Record
Temperature  
Mean Temperature 70 °F -  
Max Temperature 92 °F 83 °F 97 °F (1990)
Min Temperature 48 °F 56 °F 43 °F (1974)
Cooling Degree Days 5    
Growing Degree Days 20 (Base 50)    
Moisture  
Dew Point 49 °F    
Average Humidity 52    
Maximum Humidity 87    
Minimum Humidity 20    
Precipitation  
Precipitation 0.00 in - - ()
Sea Level Pressure  
Sea Level Pressure 29.90 in    
Wind  
Wind Speed 7 mph (SSE)    
Max Wind Speed 21 mph    
Max Gust Speed 26 mph    
Visibility 10 miles    
Events      
Averages and records for this station are not official NWS values.
T = Trace of Precipitation, MM = Missing Value Source: NWS Daily Summary

Daily Weather History Graph

Daily Weather History Graph

Search for Another Location

Airport:

Trip Planner

Search our weather history database for the weather conditions in past years. The results will help you decide how hot, cold, wet, or windy it might be!

Date:

Astronomy

Sep. 06, 2012 Rise Set
Actual Time 6:58 AM CDT 7:49 PM CDT
Civil Twilight 6:30 AM CDT 8:17 PM CDT
Nautical Twilight 5:56 AM CDT 8:51 PM CDT
Astronomical Twilight 5:22 AM CDT 9:25 PM CDT
Moon 10:57 PM CDT (9/6) 1:02 PM CDT (9/6)
Length of Visible Light 13h 47m
Length of Day
12h 51m
Waning Gibbous, 67% of the Moon is Illuminated
Sep 6
Waning Gibbous
Sep 8
Last Quarter
Sep 15
New
Sep 22
First Quarter
Sep 29
Full

Hourly Weather History & Observations

Time (CDT) Temp. Heat Index Dew Point Humidity Pressure Visibility Wind Dir Wind Speed Gust Speed Precip Events Conditions
12:15 AM 59.0 °F - 45.5 °F 61% 29.97 in 10.0 mi NNW 6.9 mph - N/A   Clear
12:35 AM 58.5 °F - 45.5 °F 62% 29.98 in 10.0 mi NNW 5.8 mph - N/A   Clear
12:55 AM 55.6 °F - 45.9 °F 70% 29.98 in 10.0 mi NNW 4.6 mph - N/A   Clear
1:15 AM 55.2 °F - 46.0 °F 71% 29.99 in 10.0 mi NNW 5.8 mph - N/A   Clear
1:55 AM 52.2 °F - 45.9 °F 79% 30.00 in 5.0 mi NNW 3.5 mph - N/A   Haze
2:15 AM 52.7 °F - 45.5 °F 76% 29.99 in 10.0 mi NNW 5.8 mph - N/A   Clear
2:35 AM 52.0 °F - 45.5 °F 79% 29.99 in 10.0 mi NNW 4.6 mph - N/A   Clear
2:55 AM 51.4 °F - 45.1 °F 79% 29.99 in 7.0 mi NW 4.6 mph - N/A   Clear
3:15 AM 52.9 °F - 45.3 °F 75% 30.00 in 10.0 mi WNW 4.6 mph - N/A   Clear
3:35 AM 53.6 °F - 45.5 °F 74% 30.00 in 10.0 mi NW 5.8 mph - N/A   Clear
3:55 AM 52.0 °F - 45.1 °F 77% 30.00 in 10.0 mi NW 4.6 mph - N/A   Clear
4:15 AM 51.4 °F - 45.1 °F 79% 29.99 in 10.0 mi NNW 6.9 mph - N/A   Clear
4:35 AM 50.9 °F - 45.0 °F 80% 29.99 in 1.8 mi Calm Calm - N/A   Haze
4:55 AM 50.7 °F - 45.0 °F 81% 29.99 in 1.5 mi Calm Calm - N/A   Haze
5:15 AM 50.9 °F - 44.4 °F 78% 30.00 in 1.5 mi Calm Calm - N/A   Haze
5:35 AM 49.8 °F - 44.2 °F 81% 30.00 in 10.0 mi Calm Calm - N/A   Clear
5:55 AM 48.4 °F - 44.2 °F 86% 30.00 in 10.0 mi Calm Calm - N/A   Clear
6:15 AM 49.1 °F - 44.6 °F 84% 30.00 in 10.0 mi Calm Calm - N/A   Clear
6:35 AM 50.0 °F - 44.2 °F 81% 30.00 in 10.0 mi Calm Calm - N/A   Clear
6:55 AM 48.4 °F - 44.2 °F 86% 30.00 in 10.0 mi Calm Calm - N/A   Clear
7:15 AM 48.4 °F - 44.8 °F 87% 30.01 in 10.0 mi Calm Calm - N/A   Clear
7:35 AM 49.6 °F - 45.5 °F 86% 30.01 in 10.0 mi Calm Calm - N/A   Clear
7:55 AM 51.1 °F - 46.4 °F 84% 30.01 in 10.0 mi Calm Calm - N/A   Clear
8:15 AM 53.6 °F - 47.7 °F 80% 30.01 in 10.0 mi Calm Calm - N/A   Clear
8:35 AM 58.5 °F - 48.7 °F 70% 30.02 in 10.0 mi SSW 4.6 mph - N/A   Clear
8:55 AM 60.4 °F - 47.8 °F 63% 30.01 in 7.0 mi Calm Calm - N/A   Clear
9:15 AM 63.1 °F - 47.1 °F 56% 30.01 in 10.0 mi South 4.6 mph - N/A   Clear
9:35 AM 65.1 °F - 48.4 °F 55% 30.02 in 10.0 mi South 8.1 mph - N/A   Clear
9:55 AM 68.5 °F - 46.6 °F 45% 30.01 in 10.0 mi SSE 6.9 mph - N/A   Clear
10:15 AM 71.6 °F - 45.3 °F 39% 30.01 in 10.0 mi SE 12.7 mph - N/A   Clear
10:35 AM 73.4 °F - 46.2 °F 38% 30.00 in 10.0 mi ESE 9.2 mph - N/A   Clear
10:55 AM 75.4 °F - 43.9 °F 32% 29.99 in 10.0 mi ESE 11.5 mph - N/A   Clear
11:15 AM 77.4 °F - 42.3 °F 29% 29.98 in 10.0 mi SE 12.7 mph 18.4 mph N/A   Clear
11:35 AM 79.0 °F - 42.6 °F 27% 29.97 in 10.0 mi SE 13.8 mph 17.3 mph N/A   Clear
11:55 AM 80.8 °F - 40.3 °F 24% 29.96 in 10.0 mi SSE 12.7 mph 18.4 mph N/A   Clear
12:15 PM 81.9 °F - 40.6 °F 23% 29.95 in 10.0 mi SE 13.8 mph 21.9 mph N/A   Clear
12:35 PM 82.9 °F - 41.2 °F 23% 29.92 in 10.0 mi SE 18.4 mph 25.3 mph N/A   Clear
12:55 PM 84.6 °F - 40.6 °F 21% 29.91 in 10.0 mi SE 19.6 mph 24.2 mph N/A   Clear
1:15 PM 85.6 °F - 39.6 °F 20% 29.90 in 10.0 mi SE 16.1 mph 21.9 mph N/A   Clear
1:35 PM 86.7 °F - 40.6 °F 20% 29.89 in 10.0 mi SSE 13.8 mph 20.7 mph N/A   Clear
1:55 PM 88.2 °F - 41.9 °F 20% 29.88 in 10.0 mi SSE 13.8 mph 25.3 mph N/A   Clear
2:15 PM 89.4 °F - 43.3 °F 20% 29.88 in 10.0 mi SSE 17.3 mph 21.9 mph N/A   Clear
2:35 PM 89.8 °F - 44.1 °F 20% 29.87 in 10.0 mi SSE 17.3 mph 23.0 mph N/A   Clear
2:55 PM 90.3 °F - 46.9 °F 22% 29.85 in 10.0 mi South 13.8 mph 21.9 mph N/A   Clear
3:15 PM 90.7 °F - 47.5 °F 23% 29.84 in 10.0 mi SSE 17.3 mph 24.2 mph N/A   Clear
3:35 PM 90.7 °F - 48.2 °F 23% 29.83 in 10.0 mi SSE 20.7 mph 25.3 mph N/A   Clear
3:55 PM 91.4 °F - 48.9 °F 23% 29.82 in 10.0 mi South 16.1 mph 26.5 mph N/A   Clear
4:15 PM 92.1 °F - 49.6 °F 23% 29.81 in 10.0 mi South 17.3 mph 26.5 mph N/A   Clear
4:35 PM 92.3 °F - 50.9 °F 24% 29.81 in 10.0 mi South 17.3 mph 26.5 mph N/A   Clear
4:55 PM 92.3 °F - 51.8 °F 25% 29.79 in 10.0 mi South 19.6 mph 26.5 mph N/A   Clear
5:15 PM 92.3 °F - 52.3 °F 26% 29.79 in 10.0 mi South 15.0 mph 24.2 mph N/A   Clear
5:35 PM 92.1 °F - 52.3 °F 26% 29.78 in 10.0 mi South 18.4 mph 24.2 mph N/A   Clear
5:55 PM 91.4 °F - 52.9 °F 27% 29.78 in 10.0 mi South 16.1 mph - N/A   Clear
6:15 PM 91.0 °F 88.7 °F 54.0 °F 28% 29.76 in 10.0 mi South 19.6 mph 23.0 mph N/A   Clear
6:35 PM 90.9 °F 88.7 °F 54.9 °F 29% 29.77 in 10.0 mi South 16.1 mph 20.7 mph N/A   Clear
6:55 PM 89.4 °F 87.5 °F 55.4 °F 31% 29.77 in 10.0 mi South 10.4 mph 19.6 mph N/A   Clear
7:15 PM 87.6 °F 86.1 °F 56.3 °F 34% 29.77 in 10.0 mi South 9.2 mph - N/A   Clear
7:35 PM 85.5 °F 84.5 °F 57.2 °F 38% 29.77 in 10.0 mi South 9.2 mph - N/A   Clear
7:55 PM 82.8 °F 82.5 °F 58.1 °F 43% 29.77 in 10.0 mi South 8.1 mph - N/A   Clear
8:15 PM 81.7 °F 81.8 °F 58.6 °F 45% 29.77 in 10.0 mi SSE 8.1 mph - N/A   Clear
8:35 PM 79.3 °F - 59.2 °F 50% 29.77 in 10.0 mi SSE 5.8 mph - N/A   Clear
8:55 PM 76.3 °F - 60.3 °F 57% 29.78 in 10.0 mi SE 6.9 mph - N/A   Clear
9:15 PM 74.8 °F - 60.8 °F 62% 29.78 in 10.0 mi SE 8.1 mph - N/A   Clear
9:35 PM 75.9 °F - 60.4 °F 59% 29.78 in 10.0 mi SE 6.9 mph - N/A   Scattered Clouds
9:55 PM 75.6 °F - 60.4 °F 59% 29.78 in 10.0 mi SE 8.1 mph - N/A   Scattered Clouds
10:15 PM 73.8 °F - 61.2 °F 65% 29.78 in 10.0 mi SE 5.8 mph - N/A   Clear
10:35 PM 73.6 °F - 61.7 °F 66% 29.79 in 10.0 mi SE 6.9 mph - N/A   Scattered Clouds
10:55 PM 73.2 °F - 61.7 °F 67% 29.79 in 10.0 mi SE 6.9 mph - N/A   Scattered Clouds
11:15 PM 73.4 °F - 61.9 °F 67% 29.79 in 10.0 mi SE 6.9 mph - N/A   Scattered Clouds
11:35 PM 72.7 °F - 62.1 °F 69% 29.79 in 10.0 mi SE 9.2 mph - N/A   Clear
11:55 PM 73.2 °F - 62.4 °F 69% 29.79 in 10.0 mi South 5.8 mph - N/A   Clear